This is the latest recevied weather packets stored in our database for station/object K0SDS. If no packets are shown the sender has not sent any weather packets the latest 1 day(s).
| Time | Temp. | Humidity | Pressure | Rain* | Wind** | Luminosity | Snow |
|---|---|---|---|---|---|---|---|
| 1777996589 | 8.89° C | 94% | 1012.4 hPa | 0 mm | 0.45 m/s, 76° | 92 W/m² | - |
| 1777996285 | 8.89° C | 94% | 1012.3 hPa | 0 mm | 0 m/s | 85 W/m² | - |
| 1777995981 | 8.33° C | 94% | 1012.4 hPa | 0 mm | 0.89 m/s, 71° | 98 W/m² | - |
| 1777995677 | 8.33° C | 94% | 1012.5 hPa | 0 mm | 0 m/s | 104 W/m² | - |
| 1777995375 | 8.33° C | 94% | 1012.3 hPa | 0 mm | 0.45 m/s, 71° | 88 W/m² | - |
| 1777995072 | 8.33° C | 94% | 1012.4 hPa | 0 mm | 0 m/s | 63 W/m² | - |
| 1777994773 | 8.89° C | 94% | 1012.9 hPa | 1.78 mm | 0 m/s | 42 W/m² | - |
| 1777994465 | 8.33° C | 94% | 1012.9 hPa | 1.78 mm | 0 m/s | 42 W/m² | - |
| 1777994160 | 8.33° C | 94% | 1012.7 hPa | 1.78 mm | 0 m/s | 51 W/m² | - |
| 1777993858 | 8.33° C | 94% | 1012.6 hPa | 0 mm | 0 m/s | 80 W/m² | - |
| 1777993554 | 8.33° C | 94% | 1012.3 hPa | 0 mm | 0 m/s | 54 W/m² | - |
| 1777993250 | 8.33° C | 94% | 1012.1 hPa | 0 mm | 0.45 m/s, 90° | 44 W/m² | - |
| 1777992946 | 8.33° C | 94% | 1012.3 hPa | 0 mm | 0.45 m/s, 72° | 52 W/m² | - |
| 1777992645 | 8.33° C | 94% | 1012.3 hPa | 0 mm | 0.89 m/s, 75° | 58 W/m² | - |
| 1777992342 | 8.89° C | 94% | 1012.1 hPa | 0 mm | 0.45 m/s, 80° | 71 W/m² | - |
| 1777992039 | 8.33° C | 94% | 1011.9 hPa | 0 mm | 0 m/s | 83 W/m² | - |
| 1777991737 | 8.33° C | 94% | 1012.1 hPa | 0 mm | 0 m/s | 49 W/m² | - |
| 1777991434 | 8.33° C | 94% | 1011.7 hPa | 0 mm | 0 m/s | 74 W/m² | - |
| 1777991131 | 8.33° C | 93% | 1011.6 hPa | 1.27 mm | 0 m/s | 78 W/m² | - |
| 1777990828 | 8.33° C | 93% | 1011.8 hPa | 3.05 mm | 0.45 m/s, 79° | 62 W/m² | - |
| 1777990526 | 8.33° C | 93% | 1011.8 hPa | 4.83 mm | 0 m/s | 105 W/m² | - |
| 1777990222 | 8.33° C | 93% | 1011.8 hPa | 4.83 mm | 0.45 m/s, 86° | 92 W/m² | - |
| 1777989919 | 8.33° C | 93% | 1012 hPa | 3.56 mm | 0.89 m/s, 50° | 65 W/m² | - |
| 1777989616 | 8.33° C | 93% | 1012 hPa | 1.78 mm | 0.45 m/s, 73° | 43 W/m² | - |
| 1777989312 | 7.78° C | 93% | 1012.2 hPa | 1.27 mm | 0 m/s | 23 W/m² | - |
* Rain latest hour (hover to see other rain measurements)
** Current wind speed in m/s (hover to see current wind gust speed)